Wind_Speed
87 87 86 85 82 78 74 70 66 63 60 58 57 55 53 52 50 47 47 47 46 45 45 46 46 45 45 46 48 49 50 52 53 57 63 70 78 85 92 96 97 97 97 95 95 95 96 99 103 105 106 105 100 95 93 93 92 91 91 89 89 88 85 82 80 74 69 67 68 68 66 65 63 61 59 55 54 52 51 51 51 49 49 49 47 47 43
87 88 87 85 80 75 71 67 64 61 57 54 52 51 49 48 48 46 43 44 44 42 42 42 42 41 42 42 44 45 47 48 50 52 57 64 72 79 88 95 99 100 99 97 97 97 98 102 105 105 104 102 97 91 89 90 90 90 90 90 91 91 87 82 79 78 74 70 69 68 65 62 60 60 59 55 55 55 54 54 53 52 52 50 50 50 45
88 89 87 83 78 72 68 65 61 58 56 52 49 47 46 45 45 45 43 41 41 41 40 39 39 38 38 39 40 42 44 45 47 50 53 59 67 74 83 92 98 102 102 101 100 100 100 104 105 105 105 102 95 88 87 88 88 87 87 89 91 90 85 81 81 81 77 70 68 67 64 61 60 61 60 58 58 57 56 55 54 53 53 51 52 51 43
89 89 86 81 76 71 66 62 58 56 54 52 49 47 46 45 44 44 43 42 40 40 39 38 38 37 35 35 37 38 40 42 44 47 50 56 62 68 77 87 96 101 103 103 103 103 103 104 104 105 105 100 90 85 85 86 85 85 86 89 92 89 84 82 82 82 79 74 72 72 69 66 64 64 63 61 60 59 58 57 55 54 54 54 55 52 43
90 88 84 79 74 70 65 60 56 53 51 49 48 47 47 46 44 42 42 41 40 39 39 38 37 36 34 33 34 36 37 39 42 45 48 53 58 64 73 82 91 98 102 105 107 106 105 104 104 105 103 96 87 83 86 87 85 84 87 91 92 89 86 84 83 82 82 78 76 75 73 68 66 66 65 64 63 62 60 57 56 57 57 57 58 53 45
90 87 82 77 72 68 64 59 55 52 50 47 46 46 46 45 45 43 40 38 38 38 37 37 36 36 34 32 32 34 35 36 40 42 46 50 55 62 69 77 86 94 99 105 109 108 106 104 105 105 100 92 85 84 87 87 86 87 89 92 92 90 87 85 84 85 84 81 78 77 74 70 67 67 67 67 66 65 63 61 60 60 59 60 60 55 49
90 85 80 75 70 65 61 58 55 52 50 48 45 44 44 43 43 44 42 38 35 35 35 35 34 34 34 32 30 32 33 34 37 40 44 48 53 59 66 73 82 89 96 102 108 109 106 105 107 105 98 90 86 85 86 86 87 89 90 90 90 88 85 85 87 89 88 84 80 77 75 73 71 69 70 69 68 66 66 65 64 63 62 62 61 58 53
89 84 78 72 66 61 57 55 54 52 50 50 47 45 44 43 41 42 42 40 35 33 32 32 32 31 32 32 29 29 31 32 34 38 41 45 51 57 63 69 77 85 91 98 105 107 105 105 107 104 97 91 88 86 85 85 88 90 90 89 87 85 85 87 90 90 88 85 81 79 77 76 74 70 69 69 68 68 69 69 67 66 65 64 63 61 58
87 81 76 69 63 58 55 53 51 51 50 49 48 46 45 44 42 41 41 40 36 33 30 29 29 28 28 30 30 27 28 30 32 35 39 43 48 54 60 66 73 80 87 94 100 103 102 103 105 103 96 92 90 87 85 85 87 90 90 87 85 85 88 91 92 90 87 85 82 81 79 77 74 72 70 70 70 70 71 70 69 69 68 67 66 63 60
86 80 73 67 60 56 53 51 49 49 49 49 48 46 45 45 44 42 42 40 36 33 30 28 27 26 25 27 28 27 27 28 30 33 37 41 45 51 57 63 69 76 82 88 94 99 100 101 102 100 95 92 91 90 88 87 88 90 90 87 86 88 91 92 92 90 87 85 83 82 81 79 77 74 72 71 71 73 74 73 72 71 70 68 66 64 64
84 78 71 64 58 54 51 49 48 47 47 48 48 47 46 46 45 43 42 41 37 33 31 28 25 25 23 23 26 26 26 27 28 31 34 38 43 48 54 59 65 71 78 82 88 93 97 99 100 99 95 93 92 93 92 90 89 90 90 89 90 90 90 91 91 90 88 87 87 87 85 83 81 78 75 75 76 77 78 76 74 73 72 71 69 68 68
82 76 69 61 56 52 49 48 47 47 46 46 47 48 47 46 46 43 41 40 37 33 31 28 25 24 22 21 23 24 24 25 26 29 32 35 40 45 50 55 61 67 73 77 82 88 93 97 98 98 96 94 95 96 95 92 90 90 92 92 92 91 90 90 90 90 91 91 92 91 86 82 81 79 79 78 77 76 79 79 78 79 79 78 74 71 69
80 73 66 59 54 51 48 47 46 46 46 46 47 48 47 46 46 44 41 39 36 33 31 29 25 24 22 20 20 22 23 23 24 26 29 33 37 42 46 51 57 63 68 72 76 82 88 93 95 97 96 96 98 98 96 93 91 91 92 93 92 91 91 91 90 91 93 94 95 91 85 83 83 81 80 80 79 79 83 84 83 82 81 77 73 69 66
78 71 63 56 52 50 47 46 45 46 47 47 48 49 49 48 48 46 42 39 37 33 31 29 25 23 22 19 19 20 21 21 21 22 26 30 34 38 43 47 52 58 63 67 72 77 84 89 92 94 96 98 99 98 97 95 93 91 91 92 92 93 93 92 92 93 94 96 95 89 86 87 86 82 83 84 83 84 86 85 84 83 79 75 71 69 67
75 67 60 54 50 48 46 44 44 45 47 48 49 50 50 50 50 48 44 40 37 34 31 29 26 23 20 18 18 18 19 18 18 19 23 27 30 34 39 43 48 53 58 63 68 73 79 84 89 92 95 98 99 98 98 97 95 93 91 91 93 93 94 94 95 96 97 97 95 92 91 90 85 83 86 88 86 86 86 84 84 84 80 76 75 75 73
72 64 56 51 47 45 44 43 43 45 47 48 49 50 51 51 51 49 45 40 37 35 31 29 26 23 20 18 17 16 17 16 16 16 19 24 28 31 36 40 44 49 54 59 64 69 74 81 87 91 94 98 99 100 100 101 99 97 94 93 94 94 95 95 95 96 97 96 96 95 93 90 87 88 92 91 87 87 85 83 86 87 83 81 81 79 76
68 60 53 48 45 43 42 42 43 44 46 48 50 50 51 51 50 47 44 40 37 34 31 28 26 23 20 17 16 15 14 14 14 14 16 21 25 28 33 37 41 46 51 56 60 65 71 77 83 89 93 97 100 102 103 104 104 103 100 97 96 96 97 96 95 96 96 96 97 97 95 94 93 94 95 93 89 89 88 87 89 88 83 82 81 77 74
65 57 50 46 43 42 41 41 42 44 47 49 51 52 52 52 49 46 43 40 38 34 31 29 26 23 20 17 16 15 13 12 11 12 14 18 22 26 29 33 38 42 47 52 57 62 67 73 80 86 92 96 101 104 106 107 109 108 105 101 99 98 97 96 96 97 98 97 98 100 99 98 98 98 98 95 92 92 93 91 90 87 83 82 81 77 73
61 54 47 43 41 39 39 39 41 43 46 50 52 53 54 54 51 46 42 39 36 33 31 28 26 24 22 20 17 15 13 11 10 10 11 15 18 22 26 30 34 38 43 48 52 57 63 69 76 83 89 95 100 104 107 109 110 108 105 102 100 99 98 97 97 98 99 98 100 102 101 100 100 100 98 94 92 93 93 90 87 85 83 82 82 78 74
58 51 45 41 39 38 37 38 40 43 46 49 52 54 56 56 54 50 44 39 36 34 33 31 30 28 26 23 20 17 14 11 9 8 9 12 15 19 23 26 31 35 40 44 48 53 59 65 72 80 86 91 97 103 107 110 110 109 106 102 100 100 99 98 98 99 100 100 101 103 102 101 100 100 97 95 93 93 92 89 86 84 82 81 82 79 74
54 47 42 39 36 35 36 37 39 42 44 48 51 54 56 57 56 52 48 45 42 40 38 35 32 30 27 25 22 19 15 11 8 6 7 9 13 16 20 23 28 32 36 41 45 50 56 61 68 75 81 86 94 102 107 109 110 110 108 105 103 102 101 99 99 100 102 102 103 103 102 100 99 99 97 95 94 93 93 91 88 86 83 82 82 79 76
51 44 39 36 34 33 34 36 38 41 43 46 50 52 54 56 56 53 50 48 46 43 39 35 32 30 28 27 24 21 17 13 9 5 4 6 10 13 17 21 24 28 32 37 42 47 52 58 63 70 75 81 89 98 105 109 111 111 111 110 107 104 103 102 101 102 103 104 104 103 101 100 99 97 94 93 93 93 92 91 89 85 83 83 82 80 78
48 41 37 33 31 31 32 34 36 39 42 45 48 50 51 53 53 52 50 48 47 45 41 37 34 32 30 28 26 23 19 15 11 7 3 3 7 10 14 17 21 25 29 34 38 43 48 53 59 65 71 77 84 92 100 107 111 112 112 112 110 106 105 104 104 103 102 103 103 102 101 101 98 94 92 92 92 92 92 91 89 86 84 83 83 82 80
44 39 34 30 28 28 30 32 35 38 41 44 46 48 50 51 50 49 49 49 48 47 45 41 37 34 32 30 28 25 22 18 14 9 5 0 4 7 11 14 18 23 27 31 34 39 43 48 53 59 66 71 78 86 95 103 108 111 112 113 111 108 105 104 104 103 102 103 103 102 101 101 98 93 92 93 92 91 91 91 90 89 86 84 84 83 82
41 35 31 28 25 26 28 30 33 36 39 42 45 47 48 49 48 47 48 48 49 48 47 44 41 37 34 32 29 26 23 20 16 12 8 4 1 4 8 11 16 20 24 28 32 36 40 44 49 55 60 66 72 81 89 97 104 108 111 112 112 109 106 104 102 101 101 102 102 101 100 100 97 93 91 91 90 89 89 90 91 91 88 85 84 84 83
37 32 29 25 23 23 25 28 31 35 38 40 43 45 45 46 47 47 47 48 49 49 48 46 43 40 37 34 31 28 25 22 19 16 12 8 4 2 5 8 12 17 21 25 29 33 37 41 46 52 56 62 68 75 83 91 98 104 109 111 111 110 108 105 103 101 99 99 100 99 98 97 95 91 91 91 89 87 86 89 91 92 89 87 86 85 84
34 30 26 22 20 20 22 26 29 33 36 38 40 42 43 44 46 47 47 47 49 49 48 46 44 42 39 36 33 30 27 24 22 19 16 12 7 4 3 5 9 13 17 21 26 30 34 38 43 48 53 58 64 71 78 85 92 99 105 109 110 111 110 107 104 102 100 98 98 98 97 96 94 92 92 91 89 86 87 89 91 92 90 88 88 87 86
30 27 24 20 18 18 20 23 27 30 32 35 37 38 40 42 43 45 46 47 48 48 47 46 44 43 41 39 36 33 30 28 25 23 19 15 11 7 4 4 6 9 13 17 22 26 31 35 40 44 49 54 60 67 73 80 87 95 101 105 108 110 110 108 105 102 100 98 97 96 95 93 91 90 89 88 87 87 88 88 89 90 90 89 88 88 87
27 24 22 18 16 16 17 20 23 25 27 30 32 35 38 39 40 42 44 44 46 46 45 45 44 43 42 41 39 37 34 31 28 25 22 18 14 10 7 4 4 7 10 14 18 22 27 32 36 40 45 50 55 61 67 75 83 91 98 103 106 108 110 109 105 102 100 99 97 95 92 90 88 87 86 85 85 85 86 86 87 89 90 90 89 88 88
24 22 20 16 14 14 14 16 19 21 23 27 29 32 35 36 36 38 40 41 42 42 41 41 41 42 43 43 42 40 38 35 32 29 25 22 18 14 10 7 4 5 7 11 14 19 23 28 32 36 40 45 50 56 62 69 77 86 94 100 104 107 109 109 106 103 101 99 97 94 90 87 86 86 86 85 85 85 87 89 90 90 91 91 90 89 89
22 20 18 15 12 12 12 13 15 17 20 22 25 27 30 32 33 34 36 37 38 37 37 37 37 38 40 42 43 42 41 40 37 33 29 26 22 19 15 11 7 5 5 8 11 15 19 23 28 32 36 41 46 51 57 64 71 80 88 95 100 104 107 108 106 103 101 99 96 92 88 86 85 85 86 86 87 87 88 90 91 91 90 90 90 89 89
21 18 17 14 11 10 11 11 11 13 16 18 20 22 26 30 31 31 33 34 35 34 33 33 34 34 35 37 40 42 43 43 41 37 34 30 27 23 20 17 13 9 5 5 8 11 15 19 23 28 32 36 41 46 52 59 66 73 81 90 96 101 105 106 106 104 101 99 95 92 88 85 83 83 84 86 87 86 86 88 90 89 88 87 88 88 89
20 16 16 14 10 9 10 11 10 10 12 15 16 18 21 26 28 29 30 32 31 31 30 31 31 31 31 32 35 38 41 43 42 40 38 35 32 29 26 22 19 15 11 7 5 6 10 14 19 24 28 32 37 42 48 54 61 68 76 84 91 97 101 104 105 104 103 100 96 92 89 87 85 85 85 86 86 85 85 86 88 88 87 87 88 89 90
21 16 15 13 11 8 9 11 11 10 11 12 12 13 15 20 24 25 27 28 28 28 28 27 27 28 29 28 29 32 36 39 41 41 41 40 37 35 32 28 24 21 17 13 9 6 5 8 12 18 23 29 34 38 44 50 56 63 70 78 85 92 97 101 103 105 105 103 99 95 93 92 90 88 86 86 85 85 85 86 87 88 88 88 89 90 91
22 17 14 13 12 10 8 9 11 12 12 11 10 9 10 15 19 22 23 24 25 25 25 25 25 26 26 26 26 28 32 36 38 40 41 41 41 40 40 37 33 29 24 20 17 13 9 6 6 10 16 22 27 33 38 45 51 57 64 72 79 86 93 98 102 104 104 103 100 97 96 95 93 90 87 86 85 85 86 87 88 88 88 89 90 91 92
23 18 14 13 13 12 10 9 10 14 14 12 10 10 9 10 14 17 19 20 21 22 23 24 23 23 23 24 24 25 28 32 34 36 38 39 40 41 41 40 39 36 32 27 24 20 16 11 7 7 10 15 20 26 31 37 44 51 58 65 72 80 87 94 99 102 103 103 101 100 100 98 95 92 90 88 86 86 86 87 88 88 88 89 91 92 93
24 19 15 14 13 13 14 13 13 16 16 12 10 11 11 11 11 13 14 16 18 19 20 21 22 21 20 20 21 22 24 27 30 32 34 35 36 37 38 37 37 36 34 31 27 25 21 17 12 9 7 10 15 21 26 31 37 43 50 57 65 73 80 87 93 98 101 102 102 102 101 100 97 94 92 89 88 86 85 86 87 88 88 89 91 93 95
25 20 16 14 13 14 16 17 18 19 20 15 10 9 12 13 13 12 10 11 13 15 17 19 20 20 18 17 16 18 20 23 24 26 28 29 30 32 33 33 32 32 31 28 27 26 24 21 17 13 9 7 11 16 21 27 32 38 44 50 58 65 73 80 87 93 98 100 101 101 100 99 98 96 93 91 89 86 85 85 87 88 89 90 92 93 95
24 22 18 15 14 15 17 19 20 21 20 17 13 11 11 12 13 12 10 10 12 13 14 16 17 16 15 14 13 13 16 18 19 21 22 22 23 25 26 27 28 28 26 23 23 25 24 21 17 14 10 7 8 12 17 22 28 33 39 45 51 58 66 74 81 88 94 98 100 100 100 98 98 97 95 93 90 87 86 85 86 87 88 90 92 93 94
24 21 18 17 17 17 18 20 21 21 20 19 18 15 13 12 12 13 12 13 13 13 12 12 13 12 11 11 10 9 11 13 15 17 17 16 17 18 20 21 23 23 20 17 19 22 22 19 17 14 10 7 6 8 12 18 23 29 35 40 47 53 60 67 74 82 89 94 98 100 100 98 98 97 96 94 91 89 88 87 86 87 88 90 91 92 92
23 20 18 17 18 18 19 20 20 20 20 20 20 17 15 13 12 13 15 15 13 12 10 8 9 9 8 8 7 7 6 7 10 13 14 13 13 14 14 15 17 17 14 13 16 18 19 18 16 13 10 7 5 4 8 13 18 23 28 34 40 46 53 60 67 75 82 89 94 98 98 98 97 97 97 95 93 91 90 89 88 88 89 90 90 91 92
23 20 20 19 19 18 18 19 19 19 19 20 20 18 16 14 13 13 15 15 13 12 10 7 6 7 8 7 6 5 3 3 4 8 11 11 11 11 11 9 10 10 8 8 11 15 16 16 14 11 8 6 4 3 3 7 12 16 21 25 31 37 43 50 58 66 74 81 88 93 95 96 96 97 97 97 95 93 91 89 89 89 89 89 90 91 92
25 24 22 21 19 18 17 17 18 18 18 19 19 18 16 15 14 15 16 16 15 14 14 11 8 6 7 8 7 5 3 1 1 3 7 9 10 10 9 8 8 7 6 6 9 13 14 15 13 9 6 4 4 3 2 2 6 10 14 19 24 29 35 42 50 57 65 73 80 86 90 93 94 94 95 96 95 93 91 90 89 89 89 89 89 90 91
25 25 24 22 20 19 18 17 16 17 16 17 18 17 16 15 16 17 18 19 18 16 17 16 13 9 8 9 8 7 5 5 5 5 6 8 9 10 9 9 8 8 7 7 9 11 12 13 12 9 5 3 3 4 4 3 3 6 9 13 18 23 28 34 41 48 55 63 71 78 84 88 90 91 91 92 93 93 92 90 90 89 89 89 89 90 91
22 22 21 21 20 19 18 17 16 15 14 15 15 16 15 15 15 16 18 20 20 19 19 19 17 14 12 11 10 10 11 11 10 9 9 10 10 10 11 11 10 10 10 10 11 12 11 11 10 8 5 4 4 4 4 4 5 6 7 11 14 18 22 27 33 39 46 53 61 68 75 81 85 87 88 89 90 92 92 91 90 90 90 90 90 91 92
22 20 18 17 17 18 18 17 16 16 15 15 14 14 14 13 14 14 15 18 20 21 21 20 19 18 17 17 15 15 15 16 15 14 13 12 13 13 13 13 12 12 13 14 15 14 13 11 10 9 7 6 4 3 2 4 7 9 9 10 12 15 19 23 27 32 37 43 50 57 64 71 77 82 84 86 87 89 91 92 91 90 90 90 91 92 93
24 22 20 19 18 18 18 18 17 16 16 16 16 16 15 15 14 14 14 15 18 20 21 22 22 21 20 21 21 20 20 20 20 19 17 16 16 16 17 16 14 14 16 18 18 17 15 14 13 12 10 7 5 3 3 5 9 11 11 11 12 14 17 19 21 24 29 34 40 46 52 59 67 73 78 81 84 87 89 91 91 91 91 91 92 92 93
26 26 26 25 23 22 20 20 19 19 19 19 19 18 18 18 17 17 16 16 16 17 18 21 23 23 23 22 22 23 24 24 23 23 22 21 20 19 19 18 17 16 18 20 20 19 19 18 16 14 12 10 7 5 5 6 9 12 13 13 13 14 15 16 18 20 24 28 32 37 42 48 54 62 68 74 79 83 86 88 90 91 92 92 92 93 95
26 25 24 23 22 22 21 21 20 20 20 19 19 19 18 18 18 18 18 17 17 17 17 18 19 21 23 24 23 23 24 26 26 26 25 24 23 23 22 21 20 19 20 21 22 22 22 20 18 16 15 13 10 9 8 8 9 10 12 14 15 15 15 16 17 19 21 23 26 29 34 38 44 49 56 63 71 77 81 84 87 90 92 94 94 95 97
22 20 19 19 19 20 19 19 19 18 18 18 17 17 18 18 19 19 19 19 19 19 19 19 19 19 20 21 22 23 24 26 27 28 27 27 26 26 25 24 23 23 23 23 24 25 25 23 21 19 17 15 14 12 11 11 11 10 10 11 14 16 15 15 15 16 17 19 21 24 28 32 36 41 45 52 59 67 74 79 83 88 92 95 97 98 98
21 20 20 20 20 20 20 20 20 20 20 19 19 19 19 19 19 20 20 21 21 21 22 22 22 21 20 20 20 21 23 25 26 28 29 29 29 29 28 27 27 26 26 25 26 27 27 26 25 23 21 18 17 16 15 14 14 12 10 9 11 15 16 16 15 15 16 18 20 22 24 28 32 36 40 45 50 56 63 70 77 83 88 93 96 98 99
25 24 23 23 22 22 21 22 22 22 21 21 21 20 20 19 19 19 19 19 20 20 21 22 22 23 22 22 21 21 21 22 24 26 27 29 30 30 30 30 30 29 28 27 27 28 29 29 28 27 25 24 22 20 19 17 16 15 13 11 10 14 18 19 18 19 20 20 21 22 23 25 28 32 36 40 45 50 55 61 68 74 81 87 92 95 98
Wind_Direction
325 324 323 323 323 323 322 321 319 318 317 315 312 311 308 305 303 301 299 296 293 290 287 284 281 277 272 267 263 260 255 250 245 238 234 231 229 228 227 228 229 229 229 228 227 227 227 229 231 232 232 232 231 230 231 231 230 228 227 226 226 226 225 225 229 230 227 224 224 224 222 222 222 223 225 224 224 223 220 220 222 222 224 225 226 228 225
327 327 326 326 326 325 324 323 322 321 319 316 313 312 311 309 307 305 303 300 298 295 291 287 284 280 275 269 263 259 254 250 245 239 233 230 227 225 224 225 227 227 227 227 227 226 224 226 228 230 232 232 230 227 227 229 229 228 228 228 228 228 226 224 226 228 226 223 224 225 224 223 222 223 224 224 224 223 220 220 222 223 225 226 227 229 225
330 329 328 328 328 327 327 326 325 323 320 318 316 315 314 313 312 310 308 305 302 299 295 290 286 281 276 270 264 258 253 249 244 239 233 228 226 224 222 223 224 225 226 226 226 225 224 224 225 227 229 230 227 225 225 226 226 226 228 229 230 230 229 226 226 228 227 223 223 226 225 223 222 223 223 223 223 223 220 219 221 224 228 228 230 231 225
332 331 331 330 330 329 329 328 327 325 323 322 321 320 319 317 316 315 312 309 307 303 299 294 290 285 279 273 266 259 253 248 243 238 233 228 225 223 221 221 222 223 223 224 224 225 224 224 225 225 227 227 225 222 224 225 224 223 224 227 229 228 228 227 226 228 228 223 220 222 222 220 218 220 221 221 222 222 220 219 219 223 227 229 232 232 226
333 333 332 332 332 331 331 330 329 327 326 326 325 324 322 321 319 318 315 312 310 306 302 298 293 288 283 276 269 261 253 247 242 237 232 228 224 221 220 220 221 221 221 222 223 224 223 223 224 225 226 225 222 220 221 223 223 222 222 224 226 226 225 224 225 227 228 225 221 220 221 220 217 218 219 220 221 221 220 219 218 221 225 228 232 231 226
335 334 334 334 334 333 332 331 330 330 329 330 330 327 325 324 322 319 317 315 312 308 304 300 296 291 285 279 272 264 255 247 241 236 231 227 223 220 219 219 220 221 220 220 222 223 222 221 223 224 224 223 221 219 218 219 219 220 221 221 223 223 222 222 221 223 225 225 222 221 221 220 218 217 218 219 220 219 218 218 217 219 223 227 230 230 227
336 336 336 336 335 335 334 332 332 332 332 332 333 331 329 328 326 322 319 316 313 308 304 300 296 292 287 281 273 266 258 249 241 235 231 226 222 220 219 218 218 220 220 220 221 222 221 221 222 223 222 221 220 219 217 216 217 219 220 220 221 221 221 221 221 221 222 222 221 221 221 221 219 217 217 218 220 220 218 217 217 217 221 225 229 230 228
337 337 337 337 337 336 334 333 333 334 334 334 334 335 333 331 330 326 322 318 315 310 306 301 296 292 288 284 275 266 259 251 242 236 231 227 223 220 219 218 218 218 219 219 220 222 221 220 221 221 219 217 218 218 217 215 215 217 219 219 220 220 219 220 222 222 222 221 220 219 220 221 220 218 217 217 219 220 219 218 217 217 219 223 227 229 228
338 338 339 338 338 336 335 335 335 335 335 335 335 337 336 334 333 331 326 321 319 315 309 304 299 293 288 285 279 270 260 252 243 237 232 227 223 220 219 218 218 218 219 218 219 221 221 220 220 219 217 215 216 217 217 215 214 216 218 217 217 218 218 219 220 221 221 221 220 219 219 219 220 218 217 217 218 220 221 219 218 219 220 222 226 228 228
339 339 340 339 338 337 336 336 337 336 335 336 337 338 339 337 336 334 330 325 323 320 315 310 304 297 289 284 279 273 264 254 245 238 233 228 224 221 219 218 218 218 218 218 218 220 221 220 220 218 215 213 213 215 216 215 214 215 216 215 215 217 218 219 219 219 219 220 220 220 218 218 218 218 217 216 215 217 220 219 218 219 220 221 224 226 228
340 340 340 340 339 338 338 338 337 337 336 337 338 339 340 340 338 337 334 329 328 326 321 316 312 303 295 286 280 273 265 256 246 239 234 228 225 222 220 219 218 218 218 218 218 218 219 220 219 217 214 212 212 214 215 215 213 213 214 213 214 216 217 219 219 219 218 218 219 219 217 216 217 216 216 216 214 214 217 219 218 218 220 221 221 223 227
340 340 340 340 340 339 339 339 338 338 338 339 341 341 342 341 339 339 338 333 332 332 327 323 320 312 303 292 282 274 266 257 248 240 235 230 226 223 221 219 218 218 218 218 218 217 218 218 218 217 214 210 210 213 214 214 213 212 212 213 212 213 215 217 218 218 218 218 218 219 217 217 217 216 215 216 215 214 216 218 218 217 218 220 220 222 226
341 341 341 341 340 339 340 340 339 340 341 342 344 343 344 344 342 342 341 337 336 336 332 329 326 319 310 299 286 277 269 260 250 242 236 231 226 224 222 220 219 218 218 218 217 217 217 217 217 216 213 210 210 211 213 214 214 212 212 212 212 212 213 215 217 218 218 218 219 219 217 216 216 216 216 217 215 214 215 217 218 219 219 220 221 222 225
341 341 341 341 340 340 341 341 341 343 345 346 347 347 347 347 346 345 345 342 341 341 338 334 331 325 317 308 294 283 275 265 254 244 237 232 227 224 222 220 219 219 218 217 216 216 216 216 216 215 212 210 209 209 210 213 215 214 212 212 212 212 212 213 214 216 218 219 220 220 217 216 215 214 216 218 216 216 216 216 218 220 220 220 221 222 222
340 341 342 341 340 340 342 343 345 348 349 349 349 350 351 351 350 348 347 346 344 344 342 339 336 331 324 315 302 289 281 272 258 245 237 233 228 224 222 221 219 218 217 217 216 215 215 215 215 214 212 210 209 208 208 211 214 215 213 212 213 212 212 212 212 214 216 217 219 219 217 217 215 214 216 218 217 218 218 217 218 220 219 218 218 219 220
340 341 342 340 340 342 343 346 349 352 352 352 352 353 354 355 353 350 348 348 347 347 346 343 341 338 331 323 310 297 287 278 265 249 238 233 229 224 221 220 219 217 216 216 215 214 214 214 214 213 212 210 208 207 207 208 211 214 214 213 213 213 213 212 212 213 215 215 217 218 217 216 215 214 216 217 217 218 219 218 219 219 218 217 218 218 219
340 341 341 340 341 343 345 349 353 354 354 354 355 356 357 359 357 353 351 351 351 350 350 348 346 344 339 331 320 308 295 283 270 255 240 233 229 224 221 219 218 216 215 214 214 214 213 213 212 212 211 209 207 206 206 207 209 211 212 212 212 213 213 212 211 213 214 214 216 217 217 216 215 214 215 215 215 217 218 218 219 219 217 218 221 220 220
340 341 341 341 342 344 348 353 356 357 357 357 358 359 0 2 1 357 356 356 355 354 354 354 352 350 347 341 333 322 311 296 278 259 243 234 229 225 221 219 218 216 215 214 213 213 213 212 211 211 210 208 207 206 206 206 208 210 211 210 210 212 213 212 212 212 213 213 214 216 216 215 215 215 215 214 214 216 218 217 218 218 216 217 221 221 220
340 341 341 341 342 345 351 355 358 359 1 1 1 1 2 3 4 3 2 360 357 357 359 359 359 358 356 353 347 338 327 313 293 270 248 235 229 226 221 219 218 216 214 214 214 213 212 211 211 210 209 208 206 206 206 206 208 210 211 209 209 210 212 212 211 212 213 213 214 215 215 215 215 216 216 215 214 216 218 218 218 218 217 217 219 220 220
340 341 341 341 343 348 353 357 359 1 4 5 4 3 3 4 5 6 7 5 3 4 6 5 5 5 3 360 355 349 341 327 310 284 256 236 227 224 220 218 217 216 214 213 213 213 212 212 211 210 209 208 206 205 206 206 207 209 211 211 209 210 211 211 211 212 213 214 214 215 215 215 215 216 215 215 214 216 218 219 218 218 217 217 219 220 220
340 340 340 341 345 351 355 358 1 4 6 7 7 5 4 5 5 7 9 11 10 9 9 8 8 7 6 4 1 358 353 343 328 300 260 236 225 220 218 215 215 216 214 213 212 212 212 212 211 211 210 208 206 205 206 206 206 208 210 211 211 210 210 211 211 212 213 214 215 215 215 215 215 215 215 214 213 214 217 218 218 217 217 217 218 219 219
339 340 340 343 347 353 356 358 3 6 7 9 9 8 6 5 5 7 10 13 13 12 10 9 10 11 11 10 8 5 3 360 352 334 277 237 223 217 215 213 212 213 213 213 211 211 211 211 211 211 211 209 207 206 205 206 206 207 208 210 211 210 210 210 211 212 213 213 214 215 215 215 215 214 214 214 214 214 216 218 218 217 217 217 218 218 219
339 339 341 344 349 354 356 359 3 7 8 9 10 8 8 7 6 7 10 13 14 15 14 13 13 15 15 15 14 12 11 10 9 5 340 237 217 212 211 210 209 209 211 212 211 210 211 211 210 211 211 211 209 207 206 206 206 206 207 210 211 211 210 210 210 211 212 214 215 215 215 216 215 213 213 214 214 213 214 217 219 218 217 217 217 217 218
338 339 340 344 350 355 357 359 4 8 10 10 10 8 8 7 7 8 11 14 15 16 17 16 16 17 18 18 18 18 17 18 18 18 17 19 203 204 206 206 206 207 208 209 209 209 210 210 211 211 212 211 210 209 208 207 207 207 207 209 211 211 211 211 211 211 211 213 215 215 215 216 215 213 212 214 214 213 213 215 217 218 218 217 217 217 218
337 338 339 344 351 356 357 359 4 8 11 11 10 9 7 6 7 10 14 16 16 17 18 18 19 19 20 21 21 22 22 24 24 26 31 41 121 189 200 203 203 204 205 206 207 207 207 208 209 211 212 212 211 211 210 209 208 207 208 209 210 212 212 212 213 213 212 213 215 215 215 215 215 212 212 213 214 213 212 213 216 218 218 217 217 217 218
336 336 338 344 353 357 358 360 5 10 12 11 10 9 6 6 8 11 16 19 20 19 18 19 21 22 22 23 23 24 26 28 30 31 35 41 58 138 186 197 199 200 202 203 205 206 206 206 207 209 211 211 211 212 211 211 210 209 208 209 210 212 212 212 213 213 214 214 215 216 216 216 215 213 212 213 214 213 212 213 215 218 218 216 216 217 217
335 334 336 344 353 358 359 2 7 11 11 11 9 7 6 8 10 12 16 20 23 22 21 20 22 24 25 26 26 27 28 32 33 34 35 39 47 69 138 181 192 196 199 200 203 204 205 206 206 207 209 209 210 211 211 211 211 211 210 210 210 211 212 213 212 213 214 215 216 216 216 216 215 214 213 212 212 212 212 213 214 216 217 216 216 216 217
333 331 333 343 353 357 0 5 11 13 11 9 7 4 5 10 14 14 16 21 24 25 24 24 24 26 28 28 29 30 31 33 36 36 35 36 41 54 83 139 175 189 195 198 201 203 205 206 206 207 208 208 209 210 210 210 211 211 212 212 212 212 213 214 213 212 213 215 216 217 217 216 215 214 213 211 210 211 213 213 214 215 217 217 216 216 217
331 327 329 339 350 356 1 8 13 14 11 7 5 3 5 10 15 16 17 22 26 28 28 27 28 29 31 31 32 33 34 35 37 39 38 37 38 46 62 90 142 173 185 192 197 200 203 205 206 207 208 208 209 209 209 209 210 210 211 212 212 213 214 215 214 213 213 214 216 217 217 216 216 215 214 213 211 211 213 214 215 215 217 217 217 217 217
328 323 324 333 345 351 360 10 12 11 9 6 5 3 3 6 13 18 19 22 27 30 30 29 29 31 34 35 35 36 36 37 37 38 39 39 39 42 49 63 97 142 169 184 191 196 201 204 206 207 207 208 208 209 209 210 210 210 211 212 212 213 214 215 216 214 213 214 215 216 216 216 215 215 214 214 212 210 211 214 215 215 216 217 217 217 217
326 318 318 327 337 343 354 7 8 4 6 6 4 1 359 1 10 18 22 23 27 30 30 29 28 32 36 39 39 39 39 39 38 38 39 40 41 42 45 49 62 95 139 168 182 191 197 200 204 206 207 207 208 209 210 210 210 210 210 211 212 213 214 216 216 216 215 215 215 216 216 215 215 215 214 214 213 211 210 212 214 215 215 216 216 217 217
325 315 311 318 328 336 346 357 360 357 357 359 2 1 357 357 5 14 20 24 27 28 29 28 27 29 34 39 43 44 43 42 42 41 41 42 44 45 46 47 50 59 82 136 168 183 191 197 201 204 206 207 208 209 209 210 210 211 211 211 212 212 213 215 216 217 217 216 216 216 217 217 216 216 215 215 215 212 211 212 214 215 215 215 216 217 218
325 311 305 308 315 328 339 342 344 343 337 341 356 4 357 354 360 9 18 23 25 26 28 28 27 26 29 35 44 49 50 49 48 47 47 47 47 48 49 49 51 54 58 73 120 165 184 194 199 202 204 205 207 208 209 210 211 211 211 211 212 212 213 214 215 216 217 217 216 215 216 217 217 217 216 216 215 213 212 212 214 215 215 215 216 217 218
327 311 301 298 297 309 330 331 323 314 310 321 344 3 359 352 355 4 16 23 24 23 24 26 27 27 28 31 40 51 57 58 57 56 55 54 54 52 52 52 52 54 56 61 69 93 144 179 196 204 206 207 207 208 209 210 210 211 211 211 212 212 212 213 214 215 216 217 216 215 215 216 217 217 216 216 215 213 213 213 214 214 214 214 215 217 218
329 314 300 291 285 289 305 312 304 297 295 303 322 344 356 351 351 359 12 21 23 21 19 22 27 30 30 31 38 49 59 64 65 64 63 62 62 61 59 57 56 56 58 61 65 69 83 114 162 194 205 209 211 211 211 211 211 211 212 212 212 212 212 213 214 215 215 216 216 215 215 215 216 217 217 216 215 214 213 213 214 214 214 214 215 216 217
332 321 303 287 279 277 278 282 291 296 295 294 299 312 329 342 347 357 8 16 19 19 16 17 23 27 30 34 41 50 60 66 67 68 68 68 68 68 67 65 64 63 63 64 67 68 71 82 108 151 183 200 207 211 213 214 213 213 213 213 213 212 212 212 213 214 214 215 216 216 215 215 215 216 216 216 215 214 213 213 214 215 214 214 215 216 217
334 326 308 290 278 274 272 272 277 288 293 291 286 293 303 312 327 347 2 9 14 17 16 14 13 14 21 34 44 50 57 64 68 69 70 70 71 71 72 71 70 69 67 66 69 71 72 75 85 104 142 180 196 204 209 212 214 215 215 214 214 214 214 214 214 214 214 215 215 216 215 214 214 215 216 216 216 214 213 213 214 215 215 215 215 216 217
335 328 315 297 280 272 273 274 274 282 291 296 288 281 288 294 301 317 341 355 2 10 12 7 2 1 8 26 41 48 54 62 67 70 71 71 72 73 73 73 72 71 69 67 70 73 72 73 78 86 102 148 182 196 204 207 211 213 215 215 215 215 215 215 215 215 215 215 216 216 216 215 214 214 215 216 216 215 213 213 214 215 215 216 216 216 217
338 333 326 309 289 276 275 277 279 283 291 298 296 287 284 289 295 302 313 322 330 341 351 352 349 351 1 16 29 43 55 62 66 70 71 71 71 75 77 76 72 70 69 70 74 77 76 75 78 83 94 122 163 188 200 205 208 211 213 214 215 215 215 216 216 216 216 216 216 217 217 216 215 214 215 215 216 215 214 213 214 215 216 217 217 217 217
342 340 332 317 302 292 285 284 285 286 289 296 300 299 296 298 302 303 300 299 305 314 325 335 339 345 360 13 17 30 51 63 69 73 74 72 71 75 80 80 77 75 75 78 83 85 84 81 78 79 84 100 138 178 197 204 208 211 213 214 215 215 215 216 216 216 217 217 217 217 217 216 215 215 214 215 215 215 215 214 214 214 216 217 217 218 218
345 343 338 328 316 304 294 289 288 287 287 293 299 303 301 295 293 295 295 293 293 295 303 320 332 334 345 360 3 9 38 65 77 82 84 84 81 80 82 85 87 90 93 94 96 96 93 87 82 78 78 86 109 167 197 204 208 212 214 216 217 217 217 217 217 217 218 218 218 218 218 217 216 215 215 215 215 215 215 214 214 214 215 216 217 218 218
344 346 346 342 333 321 308 299 293 290 289 291 297 303 303 292 280 281 290 292 287 281 285 298 308 305 308 316 322 337 12 53 87 97 100 101 99 94 91 91 96 101 106 107 105 103 100 93 88 82 80 84 93 122 189 208 212 213 214 216 218 219 219 219 219 219 219 219 219 219 219 219 218 216 215 215 215 215 216 215 214 214 215 216 217 218 219
345 348 350 347 341 333 325 313 303 299 297 295 296 301 303 295 278 269 275 284 285 282 281 284 283 277 275 278 286 305 332 309 230 145 131 129 124 119 119 119 118 120 126 121 112 108 105 99 93 85 81 88 94 90 107 197 214 214 214 215 217 218 219 220 220 220 220 220 220 220 221 221 220 219 217 216 215 216 216 216 215 215 216 216 217 218 219
346 347 347 345 342 339 336 329 321 313 308 303 301 301 301 297 286 273 270 275 279 280 277 274 270 263 256 257 264 273 273 259 248 223 190 170 155 147 149 152 149 147 148 140 127 121 118 113 106 98 89 82 85 83 88 114 162 193 205 210 214 217 219 220 221 221 221 221 221 221 221 222 222 221 220 218 217 216 216 217 217 216 216 217 217 218 219
349 347 343 341 340 340 339 339 336 330 323 316 310 305 301 297 289 281 274 272 273 274 275 272 266 259 254 252 250 251 251 250 250 244 227 205 187 177 174 174 172 166 160 153 149 144 140 137 132 122 104 77 70 83 100 121 137 156 182 198 206 212 216 219 221 222 222 222 222 223 222 222 222 222 222 220 219 217 217 218 218 218 217 217 218 219 220
351 348 345 342 341 341 341 342 342 341 338 334 328 322 316 308 297 288 281 275 274 275 277 278 273 265 258 256 252 248 246 247 248 247 239 223 210 201 194 188 184 176 167 166 167 163 158 158 160 149 124 95 80 82 117 141 147 153 165 185 197 205 212 217 220 222 223 223 223 223 223 223 223 223 222 222 221 219 218 218 219 219 219 219 219 220 221
350 351 352 352 351 349 346 344 343 343 343 342 340 337 334 328 320 310 299 289 282 278 277 279 278 274 267 262 257 252 248 246 245 244 242 235 226 218 211 206 203 191 180 177 178 174 169 169 169 160 142 124 112 115 134 151 158 161 166 177 191 200 207 214 219 221 223 224 224 223 223 223 223 223 223 222 222 221 219 219 219 219 220 220 221 221 222
355 356 356 355 354 353 351 349 349 348 347 346 344 342 339 336 333 327 320 311 301 292 283 278 277 276 273 269 263 257 252 249 245 243 242 240 235 230 223 219 216 209 199 190 183 179 177 176 173 166 158 150 147 155 162 163 165 168 172 182 193 200 202 205 211 216 220 222 223 222 222 222 222 222 222 222 222 221 220 219 218 219 220 221 222 222 224
3 360 355 352 352 353 354 354 353 351 348 346 343 340 336 333 328 325 322 318 313 307 300 291 284 279 276 273 268 262 257 252 249 247 245 242 239 236 233 228 222 217 213 205 193 185 183 182 179 177 175 169 165 168 173 170 167 169 178 189 199 203 203 204 206 210 215 218 221 221 221 220 220 220 221 221 221 221 221 219 219 219 220 221 222 223 225
6 2 358 356 358 360 360 358 356 352 349 346 344 341 338 335 330 326 323 320 316 313 309 305 299 292 285 278 273 267 261 256 252 251 249 247 244 242 241 236 229 224 221 215 204 194 191 189 187 187 187 183 178 179 181 179 173 169 174 188 198 202 204 206 205 205 207 211 214 217 219 218 217 216 216 217 218 219 219 219 218 218 219 220 221 223 225
8 7 6 7 8 7 6 5 3 360 355 353 351 349 346 341 335 330 325 320 316 313 310 307 305 303 298 291 283 275 268 261 257 254 251 250 249 248 247 243 237 231 226 220 212 204 200 197 194 193 192 189 187 188 189 188 184 180 175 180 191 195 194 192 190 189 192 196 201 206 211 213 213 212 211 212 214 215 217 217 217 218 219 220 221 222 223
12 11 11 12 12 11 10 9 8 4 1 358 355 353 350 345 339 333 327 322 317 313 309 307 305 303 300 297 293 286 279 271 266 261 256 253 251 250 249 248 244 239 234 228 221 214 210 207 205 202 197 193 192 194 194 192 190 187 181 175 177 185 187 184 179 177 179 184 188 194 199 204 206 207 207 208 209 211 212 213 215 216 218 220 222 223 224
Height
10616 10605 10595 10585 10576 10567 10557 10548 10540 10534 10527 10519 10512 10508 10503 10497 10494 10492 10487 10483 10480 10477 10474 10472 10470 10469 10469 10468 10468 10470 10472 10474 10479 10485 10491 10497 10504 10513 10521 10529 10535 10542 10552 10565 10576 10588 10601 10607 10605 10605 10608 10619 10641 10665 10678 10690 10700 10706 10713 10721 10724 10727 10736 10744 10751 10764 10777 10782 10783 10788 10794 10798 10804 10810 10816 10822 10826 10830 10832 10832 10833 10836 10839 10842 10845 10847 10854
10605 10594 10583 10573 10565 10556 10548 10539 10531 10524 10519 10514 10507 10501 10497 10491 10485 10483 10480 10475 10471 10469 10466 10463 10461 10460 10458 10458 10458 10459 10461 10463 10467 10472 10478 10483 10489 10497 10505 10512 10518 10526 10538 10551 10560 10570 10583 10586 10585 10591 10601 10613 10634 10657 10669 10678 10688 10696 10704 10711 10711 10714 10728 10742 10748 10753 10763 10772 10777 10782 10788 10797 10804 10808 10812 10818 10821 10823 10826 10826 10829 10833 10835 10838 10840 10842 10852
10596 10585 10574 10563 10555 10547 10539 10531 10523 10516 10510 10506 10501 10496 10491 10486 10479 10474 10472 10468 10464 10460 10457 10455 10453 10451 10450 10449 10449 10450 10451 10454 10457 10461 10466 10470 10476 10483 10490 10497 10503 10510 10522 10534 10543 10554 10563 10564 10569 10579 10586 10599 10625 10648 10659 10667 10677 10689 10699 10703 10704 10711 10728 10739 10741 10744 10755 10767 10774 10779 10787 10795 10800 10802 10807 10811 10814 10818 10821 10823 10826 10830 10832 10835 10835 10839 10850
10588 10576 10565 10555 10546 10538 10531 10524 10517 10511 10504 10498 10493 10488 10483 10479 10474 10469 10464 10460 10457 10453 10450 10447 10444 10443 10442 10441 10440 10441 10442 10445 10447 10451 10455 10460 10466 10473 10478 10483 10488 10495 10507 10519 10528 10537 10543 10550 10560 10568 10574 10593 10621 10642 10653 10660 10670 10682 10690 10690 10693 10706 10721 10730 10734 10739 10747 10758 10765 10768 10774 10783 10790 10795 10800 10804 10808 10812 10815 10818 10824 10826 10828 10830 10829 10835 10847
10580 10569 10558 10547 10538 10529 10522 10517 10511 10505 10499 10493 10487 10482 10477 10472 10467 10464 10459 10453 10449 10446 10442 10439 10437 10435 10434 10433 10433 10433 10434 10436 10438 10441 10445 10450 10456 10462 10467 10472 10475 10482 10494 10505 10512 10518 10527 10540 10552 10557 10568 10591 10615 10632 10641 10650 10662 10673 10676 10675 10683 10697 10709 10719 10728 10731 10735 10746 10754 10758 10765 10776 10784 10789 10793 10797 10802 10805 10810 10816 10820 10820 10822 10823 10823 10831 10841
10572 10561 10551 10541 10532 10522 10515 10509 10505 10499 10493 10489 10484 10477 10471 10466 10460 10456 10453 10449 10444 10440 10436 10433 10430 10428 10426 10426 10426 10425 10426 10428 10430 10432 10436 10440 10445 10450 10454 10460 10465 10471 10482 10491 10496 10502 10515 10531 10541 10547 10563 10588 10607 10618 10625 10637 10652 10658 10658 10663 10673 10684 10698 10710 10718 10720 10723 10734 10745 10752 10760 10769 10776 10782 10786 10789 10794 10799 10805 10810 10812 10815 10817 10816 10817 10825 10835
10565 10554 10545 10535 10526 10518 10510 10503 10498 10493 10487 10483 10480 10474 10468 10462 10456 10449 10445 10443 10440 10435 10431 10427 10424 10422 10419 10419 10419 10418 10418 10420 10422 10424 10427 10431 10436 10440 10444 10450 10454 10461 10470 10479 10484 10490 10504 10521 10528 10537 10558 10581 10597 10605 10613 10628 10640 10642 10647 10657 10667 10680 10696 10704 10706 10706 10711 10723 10737 10747 10754 10760 10767 10773 10778 10782 10788 10794 10799 10801 10804 10809 10810 10809 10813 10820 10827
10558 10548 10539 10530 10522 10514 10507 10500 10494 10488 10483 10477 10473 10469 10463 10458 10453 10447 10440 10436 10434 10431 10427 10423 10419 10417 10414 10412 10412 10412 10412 10412 10415 10417 10419 10423 10427 10431 10436 10441 10445 10451 10459 10468 10474 10480 10495 10510 10517 10528 10550 10572 10586 10595 10605 10617 10627 10632 10640 10651 10664 10679 10691 10692 10693 10698 10705 10717 10730 10738 10744 10751 10759 10768 10775 10780 10784 10788 10791 10793 10798 10802 10804 10805 10808 10813 10820
10553 10543 10534 10526 10518 10511 10504 10498 10491 10485 10479 10474 10469 10464 10459 10453 10448 10443 10437 10431 10427 10425 10421 10418 10415 10412 10410 10407 10405 10406 10405 10406 10408 10410 10412 10416 10419 10423 10427 10432 10437 10443 10449 10457 10464 10472 10486 10500 10508 10521 10542 10562 10576 10587 10595 10607 10618 10623 10631 10645 10662 10672 10676 10678 10682 10691 10702 10713 10722 10729 10737 10745 10753 10762 10769 10774 10778 10782 10785 10789 10793 10796 10798 10800 10803 10808 10814
10547 10539 10530 10522 10514 10508 10501 10495 10489 10483 10477 10471 10465 10460 10455 10449 10443 10438 10432 10426 10422 10419 10416 10413 10410 10407 10405 10402 10400 10400 10400 10400 10401 10403 10405 10408 10412 10415 10420 10424 10430 10435 10440 10447 10456 10466 10479 10491 10500 10514 10533 10553 10568 10576 10584 10595 10606 10612 10623 10639 10651 10657 10661 10667 10674 10686 10698 10708 10715 10723 10730 10738 10746 10754 10762 10768 10773 10775 10777 10781 10786 10788 10792 10796 10799 10803 10805
10543 10534 10526 10518 10511 10505 10499 10493 10487 10481 10475 10469 10463 10457 10452 10446 10440 10435 10429 10422 10417 10414 10410 10408 10405 10402 10400 10398 10395 10394 10394 10394 10395 10396 10399 10402 10405 10409 10413 10418 10423 10427 10432 10440 10450 10460 10471 10481 10492 10507 10525 10543 10558 10565 10572 10584 10595 10605 10616 10627 10634 10642 10652 10661 10669 10681 10692 10698 10703 10709 10717 10728 10737 10745 10752 10756 10761 10765 10768 10774 10779 10783 10786 10788 10791 10794 10797
10539 10530 10522 10515 10508 10502 10497 10490 10484 10478 10472 10466 10460 10455 10449 10443 10437 10432 10426 10419 10414 10410 10406 10403 10400 10397 10395 10394 10391 10389 10388 10388 10389 10391 10393 10396 10399 10402 10407 10412 10416 10421 10426 10434 10443 10453 10462 10471 10483 10498 10514 10532 10545 10552 10562 10575 10586 10596 10604 10611 10621 10634 10644 10652 10663 10674 10682 10687 10690 10695 10709 10724 10731 10736 10742 10746 10754 10762 10764 10765 10768 10770 10772 10775 10782 10789 10793
10535 10527 10519 10512 10506 10500 10494 10489 10482 10476 10470 10464 10458 10453 10447 10441 10435 10429 10423 10417 10412 10407 10403 10399 10396 10393 10391 10389 10387 10384 10384 10384 10385 10387 10388 10391 10394 10397 10401 10406 10411 10415 10421 10428 10437 10446 10454 10463 10473 10487 10504 10520 10531 10542 10556 10569 10578 10586 10595 10604 10615 10625 10633 10643 10655 10665 10671 10673 10676 10687 10707 10718 10721 10729 10736 10740 10747 10752 10750 10752 10757 10760 10764 10772 10781 10787 10790
10531 10524 10516 10510 10504 10498 10493 10487 10481 10474 10468 10462 10456 10450 10444 10438 10432 10426 10420 10415 10409 10405 10401 10397 10394 10391 10388 10386 10383 10381 10380 10380 10382 10383 10385 10386 10389 10392 10396 10400 10405 10410 10416 10423 10431 10439 10447 10456 10465 10479 10494 10508 10520 10535 10551 10563 10571 10579 10589 10599 10608 10615 10623 10635 10646 10653 10659 10663 10671 10686 10700 10703 10709 10723 10728 10729 10736 10738 10737 10745 10752 10754 10761 10771 10778 10781 10785
10528 10521 10514 10508 10502 10497 10491 10486 10479 10473 10467 10460 10455 10449 10443 10436 10430 10423 10418 10413 10408 10403 10399 10395 10392 10389 10386 10383 10381 10378 10377 10378 10379 10380 10381 10383 10385 10388 10391 10395 10400 10406 10412 10418 10425 10432 10441 10449 10458 10470 10484 10498 10512 10529 10544 10555 10563 10572 10583 10592 10598 10606 10614 10623 10632 10638 10646 10654 10664 10675 10684 10691 10706 10718 10715 10716 10725 10728 10731 10741 10745 10746 10754 10763 10766 10769 10775
10526 10519 10513 10507 10501 10496 10490 10484 10478 10473 10467 10460 10454 10448 10442 10435 10429 10422 10416 10411 10406 10401 10397 10394 10390 10387 10384 10381 10379 10376 10376 10375 10376 10378 10379 10379 10381 10384 10387 10391 10395 10401 10406 10412 10419 10426 10433 10441 10450 10462 10475 10489 10505 10519 10532 10543 10553 10562 10571 10580 10588 10596 10603 10612 10622 10629 10637 10647 10655 10663 10674 10686 10697 10700 10698 10704 10716 10720 10726 10735 10735 10735 10743 10750 10753 10760 10769
10524 10517 10511 10506 10500 10495 10489 10484 10478 10473 10467 10461 10454 10448 10442 10435 10429 10422 10416 10411 10406 10401 10397 10393 10389 10386 10383 10380 10377 10375 10374 10374 10374 10375 10376 10377 10378 10381 10384 10387 10390 10395 10401 10407 10413 10420 10426 10434 10443 10453 10465 10480 10494 10507 10518 10530 10538 10545 10554 10565 10576 10584 10591 10602 10615 10622 10629 10640 10648 10654 10665 10673 10678 10681 10684 10694 10705 10710 10715 10721 10721 10726 10740 10748 10752 10761 10769
10522 10516 10510 10505 10499 10494 10489 10483 10478 10473 10467 10460 10454 10448 10442 10436 10430 10423 10416 10410 10405 10400 10396 10392 10389 10385 10382 10380 10377 10375 10373 10372 10372 10373 10374 10375 10376 10378 10381 10384 10387 10392 10397 10402 10408 10414 10421 10428 10436 10445 10456 10470 10484 10496 10506 10515 10522 10528 10538 10550 10563 10573 10582 10594 10606 10611 10618 10628 10635 10641 10649 10656 10663 10668 10672 10683 10695 10699 10701 10707 10714 10725 10739 10745 10748 10757 10765
10520 10514 10509 10504 10499 10494 10489 10484 10479 10473 10467 10460 10454 10448 10441 10435 10430 10424 10417 10411 10406 10401 10396 10392 10388 10385 10382 10379 10377 10375 10373 10372 10372 10372 10372 10373 10375 10377 10379 10382 10385 10389 10394 10399 10405 10411 10417 10423 10430 10438 10448 10459 10473 10485 10495 10504 10514 10522 10532 10543 10555 10564 10574 10585 10595 10601 10608 10616 10622 10626 10634 10643 10650 10657 10666 10679 10690 10691 10694 10705 10714 10723 10733 10739 10743 10752 10761
10518 10513 10508 10503 10498 10493 10488 10484 10479 10474 10468 10462 10455 10449 10442 10436 10430 10424 10418 10412 10406 10401 10397 10392 10389 10385 10382 10379 10377 10375 10373 10372 10371 10371 10371 10372 10373 10375 10377 10380 10384 10387 10391 10396 10402 10408 10413 10418 10425 10431 10439 10450 10464 10476 10485 10495 10506 10517 10528 10539 10548 10556 10564 10574 10584 10592 10599 10606 10610 10614 10621 10631 10640 10649 10661 10674 10682 10686 10693 10704 10711 10719 10729 10736 10740 10749 10758
10516 10512 10507 10502 10497 10493 10488 10484 10480 10474 10469 10463 10457 10451 10444 10438 10432 10426 10420 10414 10408 10403 10398 10394 10390 10387 10383 10380 10377 10375 10373 10372 10371 10371 10371 10371 10372 10373 10375 10378 10381 10385 10389 10393 10398 10403 10408 10414 10421 10427 10435 10445 10456 10465 10475 10486 10498 10509 10521 10530 10538 10547 10556 10565 10574 10581 10586 10593 10598 10603 10613 10624 10633 10641 10652 10664 10674 10682 10689 10697 10704 10714 10724 10729 10735 10745 10754
10515 10510 10506 10501 10497 10493 10489 10485 10480 10475 10470 10464 10459 10453 10447 10441 10435 10429 10422 10417 10411 10406 10401 10396 10392 10388 10384 10381 10379 10376 10374 10373 10371 10371 10370 10370 10371 10372 10374 10376 10379 10383 10387 10390 10394 10399 10405 10411 10417 10424 10432 10440 10448 10457 10468 10479 10490 10500 10510 10518 10525 10535 10544 10552 10561 10567 10573 10580 10586 10595 10607 10616 10622 10633 10647 10659 10669 10678 10685 10692 10700 10710 10718 10724 10731 10741 10746
10513 10509 10505 10501 10497 10493 10489 10485 10481 10476 10471 10465 10460 10455 10450 10444 10439 10432 10426 10420 10414 10408 10403 10398 10394 10389 10386 10383 10380 10378 10376 10374 10372 10371 10371 10371 10371 10372 10374 10376 10379 10381 10384 10388 10392 10397 10402 10408 10415 10421 10428 10436 10444 10453 10463 10471 10479 10489 10499 10506 10514 10525 10533 10541 10548 10557 10566 10574 10581 10591 10601 10607 10615 10632 10646 10654 10662 10671 10680 10688 10696 10704 10712 10719 10726 10733 10738
10512 10508 10505 10501 10497 10493 10489 10485 10481 10477 10472 10467 10461 10457 10452 10447 10443 10437 10429 10422 10416 10410 10405 10401 10396 10392 10388 10385 10382 10380 10377 10375 10374 10373 10372 10371 10372 10373 10374 10376 10378 10381 10383 10386 10391 10395 10400 10407 10413 10419 10425 10432 10441 10450 10457 10464 10471 10481 10491 10500 10509 10518 10527 10534 10542 10550 10559 10566 10572 10582 10592 10598 10609 10627 10638 10644 10652 10662 10673 10683 10690 10696 10704 10713 10719 10726 10732
10510 10507 10504 10500 10497 10493 10490 10486 10482 10477 10473 10468 10463 10459 10455 10451 10446 10440 10433 10426 10419 10413 10408 10403 10399 10395 10391 10388 10385 10382 10379 10377 10376 10374 10374 10373 10373 10373 10375 10376 10378 10380 10383 10386 10389 10393 10398 10404 10410 10417 10423 10430 10437 10445 10453 10460 10468 10477 10487 10495 10504 10512 10521 10531 10539 10547 10555 10559 10565 10575 10585 10591 10602 10620 10632 10639 10647 10657 10669 10679 10683 10688 10696 10706 10714 10720 10726
10508 10505 10503 10500 10497 10493 10490 10487 10483 10478 10474 10470 10465 10462 10458 10454 10448 10442 10436 10429 10423 10417 10411 10407 10402 10399 10395 10391 10388 10385 10382 10380 10378 10376 10375 10375 10375 10375 10376 10377 10379 10381 10383 10385 10388 10391 10395 10400 10406 10412 10419 10426 10434 10442 10450 10458 10466 10475 10482 10490 10498 10507 10515 10524 10533 10542 10551 10557 10563 10573 10582 10589 10601 10618 10629 10634 10642 10655 10666 10672 10676 10680 10689 10699 10707 10712 10719
10507 10504 10502 10499 10496 10494 10491 10487 10483 10479 10475 10471 10468 10465 10461 10456 10450 10444 10439 10433 10427 10421 10416 10411 10407 10403 10399 10395 10392 10388 10385 10382 10380 10379 10377 10377 10376 10377 10377 10378 10380 10382 10384 10386 10388 10391 10394 10399 10404 10409 10414 10421 10428 10436 10444 10455 10465 10473 10479 10486 10493 10501 10508 10515 10524 10534 10544 10552 10558 10565 10574 10584 10596 10609 10617 10625 10638 10650 10657 10662 10667 10674 10682 10691 10698 10705 10711
10505 10503 10501 10498 10496 10494 10491 10488 10484 10480 10477 10474 10471 10468 10464 10458 10453 10448 10443 10437 10431 10426 10421 10416 10412 10407 10403 10399 10396 10392 10389 10386 10384 10382 10381 10380 10379 10379 10379 10380 10381 10383 10385 10387 10389 10391 10394 10398 10402 10407 10412 10417 10423 10430 10438 10448 10459 10469 10477 10484 10491 10497 10502 10507 10516 10526 10537 10546 10552 10559 10569 10580 10591 10601 10611 10621 10633 10642 10647 10654 10663 10670 10677 10684 10692 10699 10705
10504 10501 10499 10497 10495 10493 10491 10488 10485 10482 10479 10476 10474 10470 10465 10461 10456 10452 10447 10441 10435 10431 10426 10422 10418 10413 10408 10404 10400 10397 10394 10391 10389 10387 10385 10384 10383 10382 10381 10382 10383 10384 10386 10388 10390 10392 10395 10398 10401 10406 10411 10416 10422 10428 10434 10442 10450 10460 10469 10477 10485 10492 10497 10503 10512 10522 10532 10540 10546 10553 10565 10577 10589 10599 10609 10620 10630 10640 10647 10653 10659 10665 10671 10678 10686 10693 10700
10502 10500 10498 10496 10495 10493 10491 10488 10485 10483 10481 10478 10475 10471 10468 10464 10460 10455 10450 10444 10440 10435 10431 10427 10423 10418 10414 10409 10405 10402 10398 10396 10393 10392 10390 10388 10386 10385 10385 10385 10385 10386 10387 10389 10390 10393 10395 10398 10401 10405 10410 10415 10420 10426 10431 10438 10445 10453 10460 10468 10477 10485 10492 10497 10506 10516 10525 10532 10539 10547 10560 10573 10583 10592 10603 10613 10622 10632 10639 10643 10647 10655 10662 10669 10677 10686 10693
10501 10499 10497 10495 10494 10492 10490 10488 10486 10484 10482 10479 10476 10474 10471 10467 10462 10457 10453 10448 10444 10440 10437 10433 10428 10424 10419 10415 10411 10408 10404 10401 10398 10396 10394 10392 10391 10389 10389 10388 10388 10388 10389 10390 10392 10394 10396 10398 10402 10405 10409 10414 10418 10423 10429 10435 10440 10447 10454 10461 10471 10480 10488 10494 10502 10513 10521 10528 10536 10546 10557 10568 10577 10586 10595 10603 10610 10619 10627 10633 10639 10646 10654 10663 10672 10681 10688
10499 10497 10495 10494 10493 10491 10489 10487 10486 10484 10482 10480 10478 10475 10472 10468 10464 10459 10455 10451 10447 10444 10441 10437 10433 10429 10424 10420 10416 10412 10409 10406 10403 10401 10399 10397 10395 10393 10393 10392 10392 10392 10392 10393 10394 10395 10397 10399 10402 10405 10408 10412 10417 10421 10426 10431 10436 10442 10449 10456 10464 10473 10481 10489 10499 10509 10518 10526 10535 10546 10557 10566 10575 10583 10590 10595 10602 10612 10622 10629 10635 10642 10651 10661 10670 10677 10682
10497 10495 10494 10493 10491 10490 10488 10486 10485 10483 10482 10480 10478 10475 10472 10469 10465 10461 10457 10453 10450 10447 10444 10441 10438 10434 10430 10425 10421 10417 10414 10412 10410 10407 10404 10401 10399 10398 10397 10396 10396 10395 10395 10396 10396 10397 10399 10401 10403 10405 10407 10411 10414 10418 10423 10427 10432 10438 10444 10450 10458 10466 10475 10484 10494 10504 10513 10521 10531 10543 10554 10562 10567 10573 10579 10586 10595 10606 10617 10625 10631 10638 10647 10655 10662 10668 10673
10496 10494 10492 10491 10490 10488 10487 10485 10484 10482 10481 10480 10478 10475 10473 10471 10467 10463 10459 10455 10452 10450 10447 10445 10442 10439 10435 10431 10427 10422 10419 10417 10415 10412 10408 10406 10404 10402 10401 10400 10399 10399 10399 10399 10399 10400 10401 10403 10405 10407 10409 10410 10413 10416 10419 10423 10428 10433 10438 10445 10452 10460 10469 10478 10486 10494 10502 10511 10521 10534 10544 10549 10554 10561 10570 10579 10588 10599 10608 10616 10623 10630 10639 10647 10653 10659 10664
10494 10492 10490 10489 10489 10487 10486 10484 10482 10480 10479 10478 10477 10475 10473 10471 10468 10465 10461 10457 10454 10452 10450 10448 10445 10442 10439 10436 10432 10427 10424 10421 10419 10416 10413 10411 10409 10407 10405 10404 10403 10403 10402 10402 10402 10402 10403 10404 10406 10408 10410 10412 10414 10417 10419 10422 10426 10430 10435 10440 10447 10454 10462 10470 10478 10486 10494 10504 10515 10525 10533 10538 10545 10554 10563 10571 10579 10589 10598 10606 10613 10621 10629 10637 10643 10648 10654
10491 10490 10488 10487 10486 10486 10484 10482 10480 10478 10477 10476 10475 10474 10473 10471 10469 10466 10462 10459 10456 10455 10452 10450 10447 10445 10442 10439 10436 10432 10429 10426 10423 10420 10418 10415 10413 10411 10409 10408 10408 10407 10406 10405 10405 10405 10405 10406 10407 10408 10410 10412 10414 10417 10419 10422 10426 10429 10433 10438 10443 10449 10455 10462 10469 10476 10485 10495 10505 10513 10520 10527 10537 10546 10554 10562 10570 10579 10589 10598 10605 10612 10621 10629 10634 10639 10645
10489 10488 10486 10485 10484 10483 10482 10480 10478 10476 10475 10474 10474 10473 10472 10471 10469 10467 10464 10461 10458 10456 10454 10452 10450 10448 10445 10442 10439 10436 10433 10430 10428 10425 10423 10420 10417 10415 10413 10412 10411 10410 10409 10409 10408 10407 10407 10408 10408 10409 10410 10411 10412 10414 10417 10420 10424 10427 10431 10436 10441 10447 10452 10458 10464 10471 10478 10487 10495 10502 10510 10519 10530 10539 10546 10554 10561 10570 10581 10590 10597 10604 10612 10619 10624 10629 10634
10487 10485 10484 10483 10482 10481 10479 10478 10476 10474 10473 10473 10473 10472 10471 10470 10469 10467 10465 10462 10460 10457 10455 10453 10452 10450 10447 10444 10442 10439 10436 10434 10432 10430 10427 10425 10423 10420 10418 10416 10415 10413 10413 10413 10412 10410 10410 10411 10411 10411 10412 10412 10412 10414 10415 10418 10421 10424 10428 10433 10438 10443 10449 10455 10461 10467 10474 10482 10489 10495 10503 10514 10524 10532 10539 10546 10554 10563 10573 10582 10588 10595 10602 10608 10613 10619 10625
10485 10483 10481 10480 10479 10478 10477 10476 10474 10473 10472 10472 10471 10470 10469 10468 10467 10466 10464 10462 10460 10458 10456 10455 10453 10451 10449 10446 10444 10441 10439 10436 10435 10433 10431 10430 10428 10425 10422 10421 10419 10417 10417 10417 10415 10414 10414 10414 10414 10413 10413 10413 10413 10414 10415 10417 10419 10422 10425 10429 10433 10438 10444 10449 10454 10460 10467 10474 10482 10489 10497 10506 10515 10523 10531 10539 10547 10556 10565 10573 10581 10588 10594 10599 10604 10611 10617
10485 10482 10480 10478 10477 10476 10475 10474 10472 10471 10470 10469 10469 10468 10467 10466 10465 10464 10463 10461 10460 10458 10456 10455 10453 10451 10449 10448 10446 10443 10441 10438 10436 10435 10434 10433 10431 10429 10427 10424 10422 10421 10421 10421 10419 10417 10417 10417 10417 10416 10416 10415 10415 10415 10416 10417 10419 10421 10423 10426 10430 10434 10438 10443 10448 10454 10460 10467 10474 10481 10489 10498 10507 10515 10524 10532 10540 10548 10556 10563 10571 10578 10583 10589 10596 10603 10610
10484 10482 10479 10477 10475 10474 10473 10471 10470 10470 10468 10467 10466 10466 10466 10465 10464 10463 10461 10460 10459 10457 10455 10454 10453 10451 10450 10448 10447 10445 10443 10441 10439 10436 10435 10434 10434 10432 10430 10428 10426 10425 10425 10424 10421 10419 10419 10419 10419 10420 10419 10418 10417 10416 10417 10417 10419 10421 10423 10426 10429 10432 10436 10440 10445 10449 10455 10461 10467 10473 10481 10490 10499 10507 10516 10525 10532 10539 10546 10553 10561 10567 10573 10580 10587 10594 10600
10483 10480 10478 10476 10473 10472 10471 10470 10468 10468 10467 10466 10465 10464 10464 10464 10463 10461 10459 10458 10457 10455 10454 10452 10451 10450 10449 10448 10447 10445 10443 10442 10440 10438 10436 10435 10434 10433 10433 10431 10430 10428 10428 10427 10424 10422 10421 10421 10422 10422 10421 10420 10419 10418 10418 10418 10420 10421 10423 10426 10428 10431 10435 10438 10442 10446 10450 10455 10461 10468 10476 10483 10490 10498 10507 10515 10523 10530 10538 10546 10553 10560 10565 10572 10578 10584 10590
10480 10478 10476 10474 10472 10471 10469 10468 10466 10465 10465 10464 10463 10462 10462 10461 10460 10459 10457 10456 10455 10454 10452 10451 10450 10449 10448 10447 10446 10444 10443 10443 10441 10439 10437 10436 10435 10434 10433 10433 10431 10430 10430 10429 10427 10425 10424 10423 10424 10424 10423 10422 10421 10420 10420 10420 10421 10422 10423 10425 10427 10429 10431 10434 10437 10441 10446 10450 10456 10462 10469 10476 10484 10492 10500 10508 10516 10524 10532 10539 10546 10552 10559 10565 10571 10576 10581
10478 10475 10474 10472 10471 10469 10468 10466 10464 10463 10462 10461 10461 10460 10459 10458 10457 10456 10455 10453 10453 10452 10450 10449 10448 10448 10447 10446 10444 10443 10442 10442 10441 10439 10438 10436 10435 10434 10433 10432 10431 10431 10431 10430 10428 10427 10426 10425 10426 10426 10425 10424 10422 10421 10421 10421 10421 10422 10423 10424 10425 10427 10429 10431 10434 10437 10441 10445 10450 10456 10463 10470 10478 10486 10495 10504 10512 10519 10526 10533 10540 10546 10551 10557 10562 10566 10572
10479 10476 10474 10472 10470 10468 10466 10464 10463 10461 10460 10459 10458 10457 10456 10455 10454 10453 10452 10451 10450 10448 10447 10446 10446 10446 10445 10444 10442 10441 10440 10439 10439 10438 10437 10436 10435 10434 10433 10432 10431 10431 10430 10430 10428 10427 10427 10426 10427 10427 10426 10425 10424 10423 10422 10422 10422 10422 10422 10423 10424 10425 10426 10428 10430 10433 10436 10440 10445 10450 10457 10464 10471 10479 10487 10496 10504 10513 10520 10527 10532 10537 10543 10549 10553 10557 10561
10479 10477 10475 10473 10470 10468 10466 10463 10461 10460 10458 10457 10456 10454 10453 10452 10451 10450 10449 10449 10447 10446 10444 10443 10443 10443 10443 10442 10440 10439 10438 10437 10437 10436 10436 10435 10434 10433 10432 10431 10430 10430 10429 10429 10428 10427 10426 10426 10427 10427 10427 10426 10425 10424 10424 10423 10422 10422 10422 10423 10423 10424 10425 10426 10428 10430 10433 10437 10441 10446 10452 10458 10464 10471 10479 10487 10496 10505 10513 10519 10525 10531 10537 10542 10545 10548 10552
10478 10476 10474 10472 10470 10467 10465 10463 10461 10459 10457 10455 10454 10453 10451 10450 10449 10447 10447 10446 10444 10443 10442 10440 10439 10440 10440 10439 10438 10437 10436 10435 10434 10434 10433 10433 10433 10432 10431 10430 10429 10429 10428 10428 10428 10427 10426 10426 10426 10426 10426 10426 10426 10425 10424 10424 10423 10422 10422 10422 10423 10424 10424 10425 10427 10429 10430 10433 10436 10441 10446 10451 10457 10463 10471 10479 10486 10493 10501 10509 10518 10525 10530 10533 10537 10542 10546
10477 10474 10471 10470 10468 10466 10464 10462 10459 10457 10456 10454 10453 10451 10450 10448 10447 10445 10444 10443 10441 10440 10439 10437 10436 10436 10435 10434 10434 10434 10433 10432 10431 10431 10431 10431 10430 10430 10429 10428 10428 10428 10427 10427 10426 10426 10426 10426 10426 10425 10426 10426 10426 10425 10425 10424 10424 10423 10422 10422 10422 10423 10424 10425 10426 10427 10428 10430 10432 10436 10440 10444 10449 10456 10462 10469 10475 10482 10490 10500 10510 10517 10522 10527 10532 10536 10536
10477 10474 10472 10470 10468 10466 10464 10461 10459 10457 10455 10454 10452 10450 10449 10447 10445 10444 10442 10441 10439 10438 10436 10435 10433 10432 10431 10430 10430 10429 10429 10428 10428 10428 10428 10428 10427 10427 10427 10426 10425 10425 10425 10425 10425 10425 10425 10425 10425 10425 10425 10425 10425 10425 10424 10424 10424 10423 10423 10422 10422 10422 10423 10424 10425 10426 10427 10429 10430 10432 10435 10439 10443 10449 10455 10461 10466 10473 10480 10490 10499 10507 10513 10519 10524 10526 10526
10480 10478 10475 10472 10470 10467 10464 10462 10460 10458 10456 10454 10452 10450 10448 10446 10444 10442 10441 10439 10437 10435 10434 10432 10430 10429 10427 10426 10425 10425 10424 10424 10424 10424 10424 10424 10424 10424 10423 10423 10423 10422 10422 10423 10422 10422 10422 10423 10424 10424 10424 10424 10424 10424 10424 10423 10423 10423 10422 10422 10422 10422 10423 10424 10425 10426 10427 10428 10429 10430 10432 10435 10438 10443 10448 10453 10458 10464 10471 10479 10487 10494 10499 10504 10510 10514 10518
10482 10479 10476 10473 10470 10468 10465 10463 10460 10458 10456 10454 10452 10450 10448 10445 10443 10441 10439 10437 10435 10433 10431 10429 10428 10426 10425 10423 10422 10421 10420 10419 10419 10419 10419 10420 10420 10420 10420 10420 10419 10419 10419 10419 10420 10420 10420 10420 10421 10422 10422 10423 10423 10423 10422 10422 10422 10422 10422 10421 10421 10421 10422 10423 10424 10425 10426 10427 10428 10429 10430 10432 10435 10438 10442 10446 10450 10456 10462 10469 10477 10483 10489 10493 10498 10503 10507
10482 10479 10476 10474 10471 10469 10466 10463 10461 10458 10456 10453 10451 10449 10447 10445 10442 10440 10438 10435 10433 10431 10429 10427 10425 10423 10421 10420 10419 10418 10416 10415 10415 10414 10415 10415 10415 10415 10415 10416 10415 10415 10416 10416 10417 10417 10417 10418 10418 10419 10420 10420 10420 10421 10421 10421 10421 10421 10421 10421 10421 10421 10422 10422 10423 10424 10425 10426 10427 10428 10429 10430 10432 10435 10438 10441 10445 10449 10454 10461 10467 10473 10479 10485 10490 10494 10499